Regional Weather Roundup
Issued by NWS

Home | Current Version | Previous Version | Text Only | Print | Product List | Glossary On
Versions: 1 2 3 4 5 6 7 8 9 10 11 12 13 14 15 16 17 18 19 20 21 22 23 24 25 26 27 28 29 30 31 32 33 34 35 36 37 38 39 40 41 42 43 44 45 46 47 48 49 50
000
ASUS43 KTOP 270559
RWRKS

WEATHER ROUNDUP FOR KANSAS
NATIONAL WEATHER SERVICE GOODLAND KS
100 AM CDT SAT AUG 27 2016

NOTE:  "FAIR" INDICATES FEW OR NO CLOUDS BELOW 12,000 FEET WITH NO
SIGNIFICANT WEATHER AND/OR OBSTRUCTIONS TO VISIBILITY.

KSZ001>006-013>018-027>032-041>047-270700-
NORTHWEST KANSAS

CITY           SKY/WX    TMP DP  RH WIND       PRES   REMARKS
GOODLAND       FOG       51  49  92 SE6       30.08F VSB 1/2
6HR MIN TEMP:  51; 6HR MAX TEMP:  72;

HAYS           CLOUDY    61  52  72 NE14      30.06F
HILL CITY      CLOUDY    59  58  96 E3        30.05F
6HR MIN TEMP:  57; 6HR MAX TEMP:  74; 6HR PCP:  0.16;

RUSSELL        HVY RAIN  61  60  97 N16       30.04F FOG
6HR MIN TEMP:  61; 6HR MAX TEMP:  75; 6HR PCP:  0.27;

$$

KSZ061>065-074>080-084>089-270700-
SOUTHWEST KANSAS

CITY           SKY/WX    TMP DP  RH WIND       PRES   REMARKS
DODGE CITY     CLOUDY    67  64  90 SE8       30.03F
6HR MIN TEMP:  67; 6HR MAX TEMP:  78;

ELKHART          N/A     65  54  68 SW9         N/A
GARDEN CITY    PTCLDY    67  62  84 SE9       30.02F
6HR MIN TEMP:  67; 6HR MAX TEMP:  77;

GREAT BEND     CLEAR     68  59  73 NE3       30.01S
LIBERAL        MOCLDY    70  63  78 S8        30.05S
$$

KSZ066>073-081>083-090>101-270700-
SOUTHEAST KANSAS

CITY           SKY/WX    TMP DP  RH WIND       PRES   REMARKS
CHANUTE        CLOUDY    71  69  93 SE3       30.02F
6HR MIN TEMP:  70; 6HR MAX TEMP:  74;

HUTCHINSON     PTCLDY    73  68  84 SE9       30.01F
6HR MIN TEMP:  70; 6HR MAX TEMP:  81;

MEDICINE LODGE   N/A     71  67  87 S7        29.99F
NEWTON         CLEAR     70  68  93 SE6       30.04S
PARSONS        MOCLDY    73  70  90 S3        30.03F
6HR MIN TEMP:  71; 6HR MAX TEMP:  75;

WICHITA INTL   PTCLDY    72  69  90 S7        30.01F
6HR MIN TEMP:  72; 6HR MAX TEMP:  82;

WICHITA JABRA  CLOUDY    73  69  87 S6        30.02S
6HR MIN TEMP:  71; 6HR MAX TEMP:  81;

WINFIELD       CLEAR     71  68  90 SE6       30.03S
6HR MIN TEMP:  70; 6HR MAX TEMP:  84;

$$

KSZ007>012-019>026-033>040-048>060-102>105-270700-
NORTHEAST KANSAS

CITY           SKY/WX    TMP DP  RH WIND       PRES   REMARKS
CONCORDIA      CLOUDY    67  65  93 NE5       30.02S
6HR MIN TEMP:  66; 6HR MAX TEMP:  74;

EMPORIA        PTCLDY    70  69  97 S6        30.02F
6HR MIN TEMP:  70; 6HR MAX TEMP:  81;

LAWRENCE       MOCLDY    70  69  97 SE5       30.03F
6HR MIN TEMP:  70; 6HR MAX TEMP:  75; 6HR PCP:  0.01;

MANHATTAN      CLOUDY    71  69  93 E5        30.02F
6HR MIN TEMP:  67; 6HR MAX TEMP:  80;

OLATHE IND     MOCLDY    70  69  97 E5        30.05F
6HR MIN TEMP:  70; 6HR MAX TEMP:  78; 6HR PCP:  0.58;

OLATHE EXE     PTCLDY   N/A N/A N/A E6        30.05F
                                      6HR PCP:  0.01;

SALINA         CLOUDY    73  66  78 E6        30.01F
6HR MIN TEMP:  73; 6HR MAX TEMP:  80;

TOPEKA BILLARD PTCLDY    70  68  93 CALM      30.03F
6HR MIN TEMP:  69; 6HR MAX TEMP:  78;

TOPEKA FORBES  MOCLDY    71  69  93 E7        30.03F
6HR MIN TEMP:  71; 6HR MAX TEMP:  80;

$$




USA.gov is the U.S. government's official web portal to all federal, state and local government web resources and services.